KG1ZR Weather Reports


time (UTC)temp
F
wind
direction
speed
knots
gust
knots
rain 1hr
in
rain 24hr
in
rain mn
in
humidity
%
barometer
mb
20260906120020 54 194 0.0 1.7 0.00 0.01 0.00 60 1014.4
20260906115454 54 68 0.0 0.0 0.00 0.01 0.00 59 1014.3
20260906114020 53 68 0.0 0.0 0.00 0.01 0.00 59 1014.3
20260906113020 53 68 0.0 1.7 0.00 0.01 0.00 60 1014.1
20260906112020 52 68 0.0 0.9 0.00 0.01 0.00 62 1014.0
20260906111021 51 68 0.0 0.9 0.00 0.01 0.00 63 1014.0
20260906110949 51 68 0.0 0.9 0.00 0.01 0.00 64 1014.0
20260906105020 51 68 0.0 0.9 0.00 0.01 0.00 65 1014.0
20260906104151 51 68 0.0 0.9 0.00 0.01 0.00 66 1014.0
20260906102021 52 68 0.0 1.7 0.00 0.01 0.00 67 1013.9
20260906101021 52 68 0.0 0.0 0.00 0.01 0.00 67 1013.8
20260906100021 52 68 0.0 0.9 0.00 0.01 0.00 68 1013.9
20260906095020 53 68 0.0 0.0 0.00 0.01 0.00 67 1013.8
20260906094021 53 68 0.0 0.0 0.00 0.01 0.00 68 1013.8
20260906093021 53 68 0.0 0.9 0.00 0.01 0.00 68 1013.5
20260906092020 53 68 0.0 0.9 0.00 0.01 0.00 68 1013.4
20260906091020 53 68 0.9 4.3 0.00 0.01 0.00 68 1013.4
20260906090020 54 39 0.0 4.3 0.00 0.01 0.00 68 1013.3
20260906085021 54 34 0.0 2.6 0.00 0.01 0.00 67 1013.3
20260906084021 54 34 0.9 2.6 0.00 0.01 0.00 65 1013.2
20260906083500 54 22 0.0 2.6 0.00 0.01 0.00 61 1013.1
20260906082019 54 46 0.9 2.6 0.00 0.01 0.00 60 1013.1
20260906081018 54 61 0.9 3.5 0.00 0.01 0.00 59 1013.1
20260906080016 53 97 0.0 2.6 0.00 0.01 0.00 58 1013.1
20260906075014 53 349 0.0 2.6 0.00 0.01 0.00 59 1013.0
20260906074013 53 349 0.0 2.6 0.00 0.01 0.00 59 1013.0
20260906073011 52 58 0.0 2.6 0.00 0.01 0.00 60 1013.0
20260906072006 52 63 0.0 1.7 0.00 0.01 0.00 61 1013.0
20260906071004 52 60 0.0 1.7 0.00 0.01 0.00 61 1012.8
20260906070005 52 5 0.0 0.0 0.00 0.01 0.00 61 1012.9
20260906065005 52 5 0.0 0.9 0.00 0.01 0.00 62 1012.8
20260906064444 52 5 0.0 0.0 0.00 0.01 0.00 61 1012.8
20260906063441 53 5 0.0 0.0 0.00 0.01 0.00 61 1012.7
20260906062004 53 5 0.0 0.0 0.00 0.01 0.00 62 1012.8
20260906061006 53 5 0.0 0.9 0.00 0.01 0.00 62 1012.8
20260906060006 53 5 0.0 8.7 0.00 0.01 0.00 62 1012.8
20260906055005 53 5 0.9 8.7 0.00 0.01 0.00 62 1012.7
20260906054006 53 13 0.9 4.3 0.00 0.01 0.00 61 1012.8
20260906053005 53 46 1.7 6.1 0.00 0.01 0.00 60 1012.7
20260906052001 53 41 0.9 4.3 0.00 0.01 0.00 60 1012.7
20260906051000 52 36 1.7 3.5 0.00 0.01 0.00 60 1012.8
20260906045958 52 57 0.9 3.5 0.00 0.01 0.00 61 1012.9
20260906045441 51 67 0.0 0.0 0.00 0.01 0.00 62 1012.9
20260906043957 52 61 0.0 0.0 0.00 0.01 0.00 62 1012.8
20260906042956 52 298 0.0 0.0 0.00 0.01 0.00 63 1012.9
20260906041956 52 62 0.0 0.0 0.00 0.01 0.00 64 1012.8
20260906041431 52 62 0.0 0.0 0.00 0.01 0.00 64 1012.8
20260906040433 52 62 0.0 0.0 0.00 0.01 0.01 65 1012.7
20260906034953 52 62 0.0 0.0 0.00 0.01 0.01 65 1012.7
20260906033953 53 62 0.0 0.0 0.00 0.01 0.01 66 1012.7
20260906032953 53 62 0.0 0.0 0.00 0.01 0.01 68 1012.7
20260906031947 53 62 0.0 1.7 0.00 0.01 0.01 68 1012.7
20260906030947 54 62 0.9 1.7 0.00 0.01 0.01 68 1012.7
20260906025948 54 266 0.0 1.7 0.00 0.01 0.01 69 1012.6
20260906024946 55 312 0.0 1.7 0.00 0.01 0.01 71 1012.6
20260906023946 55 337 0.9 1.7 0.00 0.01 0.01 72 1012.5
20260906022945 56 60 0.0 3.5 0.00 0.01 0.01 73 1012.5
20260906022425 56 60 0.9 3.5 0.00 0.01 0.01 74 1012.4
20260906021424 57 60 0.0 4.3 0.00 0.01 0.01 74 1012.4
20260906015944 57 58 0.9 4.3 0.00 0.01 0.01 74 1012.4
20260906014943 57 64 0.9 3.5 0.00 0.01 0.01 73 1012.4
20260906013942 56 51 0.9 3.5 0.00 0.01 0.01 73 1012.5
20260906012941 57 53 0.0 1.7 0.00 0.01 0.01 73 1012.5
20260906011941 57 22 0.0 0.9 0.00 0.01 0.01 74 1012.6
20260906010941 58 5 0.0 0.9 0.00 0.01 0.01 75 1012.5
20260906005941 58 5 0.0 3.5 0.00 0.01 0.01 75 1012.4
20260906004942 58 37 0.9 3.5 0.00 0.01 0.01 75 1012.3
20260906003942 58 46 0.9 1.7 0.00 0.01 0.01 76 1012.2
20260906002941 59 43 0.0 1.7 0.00 0.01 0.01 76 1012.1
20260906001941 60 45 0.0 1.7 0.00 0.01 0.01 76 1012.2
20260906000942 60 45 0.9 4.3 0.00 0.01 0.01 76 1012.2
20260905235942 60 47 1.7 4.3 0.00 0.01 0.01 76 1012.2
20260905234942 60 66 0.9 4.3 0.00 0.01 0.01 76 1012.1
20260905233939 60 53 0.9 5.2 0.00 0.01 0.01 76 1012.1
20260905233419 60 38 0.9 5.2 0.00 0.01 0.01 76 1012.0
20260905231939 60 83 0.0 1.7 0.00 0.01 0.01 76 1011.8
20260905230939 61 61 0.0 3.5 0.00 0.01 0.01 76 1011.7
20260905225937 62 42 0.0 3.5 0.00 0.01 0.01 76 1011.8
20260905224937 63 310 0.0 0.0 0.00 0.01 0.01 76 1011.7
20260905224417 64 310 0.0 0.0 0.00 0.01 0.01 76 1011.6
20260905222937 65 310 0.0 0.0 0.00 0.01 0.01 75 1011.4
20260905221937 66 310 0.0 0.0 0.00 0.01 0.01 74 1011.3
20260905220937 66 310 0.0 1.7 0.00 0.01 0.01 74 1011.3
20260905215935 66 123 0.0 5.2 0.00 0.01 0.01 74 1011.1
20260905214935 67 64 0.9 5.2 0.00 0.01 0.01 73 1011.0
20260905213935 67 53 0.9 5.2 0.00 0.01 0.01 71 1010.8
20260905212935 67 54 0.9 4.3 0.00 0.01 0.01 69 1010.8
20260905211935 68 5 0.9 7.8 0.00 0.01 0.01 70 1010.6
20260905210935 67 341 1.7 7.8 0.00 0.02 0.01 68 1010.7
20260905210422 67 90 2.6 8.7 0.00 0.02 0.01 69 1010.5
20260905204935 68 71 2.6 9.6 0.00 0.02 0.01 68 1010.3
20260905203935 68 56 0.9 6.1 0.00 0.02 0.01 71 1010.4
20260905202935 68 65 0.9 8.7 0.00 0.02 0.01 70 1010.3
20260905201934 68 316 2.6 9.6 0.00 0.02 0.01 67 1010.3
20260905200933 69 32 1.7 7.8 0.00 0.02 0.01 65 1010.2
20260905195933 69 13 0.9 7.8 0.00 0.02 0.01 71 1010.2
20260905194933 68 281 1.7 6.1 0.00 0.02 0.01 71 1010.1
20260905194852 68 42 2.6 9.6 0.00 0.02 0.01 67 1010.2
20260905193409 69 49 2.6 8.7 0.00 0.02 0.01 64 1010.2
20260905191933 70 57 3.5 9.6 0.00 0.02 0.01 66 1010.1
20260905190933 69 30 2.6 11.3 0.00 0.02 0.01 67 1010.0
20260905185933 70 286 2.6 10.4 0.00 0.02 0.01 71 1010.1
20260905184932 69 53 0.9 7.8 0.00 0.02 0.01 74 1010.1
20260905183931 68 274 2.6 9.6 0.00 0.02 0.01 72 1010.2
20260905183408 68 26 2.6 8.7 0.00 0.02 0.01 72 1010.3
20260905181931 67 0 3.5 9.6 0.00 0.02 0.01 71 1010.2
20260905181409 67 49 4.3 13.0 0.00 0.02 0.01 68 1010.2
20260905175931 69 5 2.6 13.0 0.00 0.02 0.01 69 1010.2
20260905174931 68 336 4.3 13.9 0.00 0.02 0.01 70 1010.2
20260905173934 68 47 4.3 11.3 0.00 0.02 0.01 72 1010.3
20260905172935 67 73 4.3 9.6 0.00 0.02 0.01 73 1010.4
20260905171932 68 9 1.7 7.0 0.00 0.02 0.01 71 1010.3
20260905171406 68 62 2.6 13.9 0.00 0.02 0.01 74 1010.4
20260905170403 68 99 2.6 13.9 0.00 0.02 0.01 73 1010.4
20260905165411 68 63 3.5 10.4 0.00 0.02 0.01 73 1010.4
20260905163932 68 51 1.7 7.8 0.00 0.02 0.01 73 1010.3
20260905162931 68 13 1.7 7.8 0.00 0.02 0.01 74 1010.4
20260905161932 68 24 2.6 9.6 0.00 0.02 0.01 74 1010.5
20260905160932 67 9 3.5 9.6 0.00 0.02 0.01 75 1010.5
20260905155932 65 86 4.3 13.9 0.00 0.02 0.01 74 1010.5
20260905154934 66 40 4.3 13.9 0.00 0.02 0.01 74 1010.5
20260905153932 66 55 4.3 12.2 0.00 0.02 0.01 75 1010.5
20260905152932 65 346 6.1 13.0 0.00 0.02 0.01 75 1010.5
20260905151932 64 33 4.3 13.9 0.00 0.02 0.01 74 1010.5
20260905151407 64 67 5.2 13.0 0.00 0.02 0.01 75 1010.5
20260905145932 64 355 3.5 10.4 0.00 0.02 0.01 71 1010.3
20260905144932 63 75 3.5 10.4 0.00 0.02 0.01 72 1010.2
20260905143931 64 70 5.2 12.2 0.00 0.02 0.01 71 1010.0
20260905142932 63 26 3.5 11.3 0.00 0.02 0.01 60 1010.1
20260905141932 62 84 3.5 7.8 0.00 0.02 0.01 57 1010.0
20260905141414 62 39 2.6 7.8 0.01 0.02 0.01 55 1010.0
20260905135932 62 67 1.7 6.1 0.01 0.02 0.01 55 1009.9
20260905134933 61 80 1.7 6.1 0.01 0.02 0.01 57 1009.8
20260905133932 62 102 0.9 3.5 0.01 0.02 0.01 57 1009.7
20260905132932 62 5 0.9 4.3 0.01 0.02 0.01 58 1009.6
20260905131932 62 92 0.9 9.6 0.01 0.02 0.01 60 1009.5
20260905130932 62 58 3.5 9.6 0.00 0.01 0.00 62 1009.3
20260905125932 63 51 2.6 8.7 0.00 0.01 0.00 65 1009.1
20260905124932 63 50 3.5 9.6 0.00 0.01 0.00 63 1009.1
20260905123933 63 62 3.5 9.6 0.00 0.01 0.00 58 1009.1
20260905122932 62 60 2.6 7.0 0.00 0.01 0.00 55 1009.0
20260905122411 62 66 1.7 4.3 0.00 0.01 0.00 56 1009.0
20260905121407 61 61 0.9 3.5 0.00 0.01 0.00 56 1009.0